Weather Roundup
Issued by NWS

Home | Current Version | Previous Version | Graphics & Text | Print | Product List | Glossary Off
Versions: 1 2 3 4 5 6 7 8 9 10 11 12 13 14 15 16 17 18 19 20 21 22 23 24 25 26 27 28 29 30 31 32 33 34 35 36 37 38 39 40 41 42 43 44 45 46 47 48 49 50

000
NZUS93 KARX 042310
HRRWXR

CURRENT HOURLY OBSERVATIONS ACROSS
MUCH OF THE UPPER MISSISSIPPI VALLEY
NATIONAL WEATHER SERVICE LA CROSSE WI
600 PM CDT FRI SEP 04 2015


...SOUTHEAST MINNESOTA...


CITY           SKY/WX    TMP DP  RH WIND       PRES   REMARKS
ROCHESTER      SUNNY     84  72  67 S9        29.96R
ROCHESTER/MAYO FAIR      86  71  59 SE5       29.95S HX  91
WINONA         MOSUNNY   90  72  55 CALM      29.94S HX  96
AUSTIN         MOSUNNY   84  73  70 S7        29.94S HX  91
ALBERT LEA     PTSUNNY   84  72  65 S10       29.94R
DODGE CENTER   MOSUNNY   82  72  69 CALM      29.95S
PRESTON        SUNNY     84  70  61 S8        29.98R
OWATONNA       PTSUNNY   86  72  62 S9        29.93R HX  92
FARIBAULT      PTSUNNY   88  73  62 SE12      29.92S HX  96
$$

...ELSEWHERE IN MINNESOTA...


CITY           SKY/WX    TMP DP  RH WIND       PRES   REMARKS
MINNEAPOLIS    PTSUNNY   86  72  62 SE9       29.90R HX  92
INTNL FALLS    PTSUNNY   82  70  66 SE12      29.89S
DULUTH         MOSUNNY   74  65  73 E12       29.97R
RED WING       SUNNY     88  72  58 SE9       29.91R HX  94
REDWOOD FALLS  LGT RAIN  79  72  79 S10       29.88R
MANKATO        PTSUNNY   84  72  65 S9        29.91R
WORTHINGTON    CLOUDY    79  70  73 SE8       29.90S
FAIRMONT       CLOUDY    81  68  65 S5        29.93R
$$

...SOUTHWEST WISCONSIN...


CITY           SKY/WX    TMP DP  RH WIND       PRES   REMARKS
LA CROSSE      SUNNY     87  69  54 SE8       29.94F HX  91
PRAIRIE DU CHI MOSUNNY   88  66  47 SE3       29.95S HX  90
BOSCOBEL       PTSUNNY   89  70  53 VRB3      29.96S HX  94
LONE ROCK      SUNNY     86  73  65 SE6       29.98S HX  93
PLATTEVILLE    SUNNY     85  73  67 S7        29.99R HX  91
FORT MC COY    MOSUNNY   84  70  63 SE7       29.98S
CAMP DOUGLAS   SUNNY     82  77  84 SE7       29.99S HX  90
VIROQUA        MOCLDY    85  70  60 S5        30.00S
WIS DELLS      SUNNY     82  69  64 E7        30.00S
$$

...ELSEWHERE IN WISCONSIN...


CITY           SKY/WX    TMP DP  RH WIND       PRES   REMARKS
MILWAUKEE      MOSUNNY   70  65  84 E9        30.03F
MADISON        MOSUNNY   82  71  69 NE9       29.99S
GREEN BAY      MOSUNNY   76  68  76 NE9       30.03S
EAU CLAIRE     SUNNY     83  71  67 SE10      29.95R
BLACK RVR FLS  FAIR      84  69  60 E7        29.96F
MEDFORD        SUNNY     77  68  73 SE6       30.03R
WAUSAU         SUNNY     80  66  62 VRB7      30.01S
WIS RAPIDS     MOSUNNY   79  64  60 E8        30.03R
MARSHFIELD     MOSUNNY   80  65  59 SE8       30.02S
RICE LAKE      MOSUNNY   81  70  68 E9        29.98R
$$

...NORTHEAST IOWA...


CITY           SKY/WX    TMP DP  RH WIND       PRES   REMARKS
DECORAH        SUNNY     84  72  65 S7        29.96S
MASON CITY     CLOUDY    83  74  74 S8        29.95S
CHARLES CITY   MOSUNNY   82  75  78 S6        29.96S
OELWEIN        SUNNY     84  73  70 S6        29.97S HX  91
$$

...ELSEWHERE IN IOWA...


CITY           SKY/WX    TMP DP  RH WIND       PRES   REMARKS
DES MOINES     MOSUNNY   89  70  53 S9        29.93S HX  94
IOWA CITY      SUNNY     89  69  51 S6        29.96S HX  93
FORT DODGE     PTSUNNY   82  70  65 S6        29.93R
$$

...NORTHERN ILLINOIS...


CITY           SKY/WX    TMP DP  RH WIND       PRES   REMARKS
CHICAGO-OHARE  MOSUNNY   78  67  68 NE10      30.01S
CHICAGO-MIDWAY PTSUNNY   77  65  66 E16       30.02R
MOLINE         SUNNY     90  68  48 S6        29.95S HX  94
ROCKFORD       MOSUNNY   89  70  53 W3        30.00S HX  94
PEORIA         SUNNY     94  67  41 W3        29.97S HX  97
$$

NOTE: "FAIR" INDICATES FEW OR NO CLOUDS BELOW 12,000 FEET WITH NO
SIGNIFICANT WEATHER AND/OR OBSTRUCTIONS TO VISIBILITY. WIND
SPEEDS ARE IN MILES-PER-HOUR.



USA.gov is the U.S. government's official web portal to all federal, state and local government web resources and services.